Latest METARs, TAFs and NOTAMs for SKCL


---------------------------------------------------------------------------
	(OBSERVATIONS)
SKCL 011100Z 00000KT 9999 FEW020 SCT200 19/17 A2997=
SKCL 011030Z 00000KT 9999 FEW020 SCT200 19/18 A2996=
SKCL 011000Z 00000KT 9999 FEW020 SCT200 19/18 A2994=
SKCL 010900Z 00000KT 9999 FEW020 20/18 A2993=
---------------------------------------------------------------------------
	(TERMINAL AREA FORECAST)
SKCL 011000Z 011212 01005KT 9999 FEW020 SCT200
    TEMPO 0112/0113 9000 MIFG SCT017
    TEMPO 0117/0123 32010KT SCT023TCU
    PROB40 0120/0122 8000 VCSH SCT020CB
    TEMPO 0200/0202 SCT018TCU
    TEMPO 0209/0212 7000 MIFG SCT015
    TX33/0119Z TN18/0211Z=
---------------------------------------------------------------------------
	(NOTAMS)


SKCL A1600/14 REMOTE ACFT STAND ZULU POINT INSTL COORD 033320,90W0762252,12W
    REF AIP COLOMBIA 2-SKCL-ADC. 09 JUN 20:30 2014 UNTIL PERM.
    CREATED: 02 JUL 12:25 2014

SKCL A2175/14 TWY A,B,C,C1,C2,D,E,F,G WIP, EXER CTN. H24, 31
    JUL 13:40 2014 UNTIL 31 OCT 23:59 2014. CREATED: 31 JUL 13:45
    2014

SKCL A2176/14 APRON, CARGO APRON AND DECONGESTION APRON WIP,
    EXER CTN. H24, 31 JUL 13:50 2014 UNTIL 31 OCT 23:59 2014.
    CREATED: 31 JUL 13:59 2014

SKCL A2177/14 RWY 01/19 TURNING BAY LTD, ACFT PROHIBITED PARALLEL
    OR ONE SURPASSES THE OTHER ACFT, EXER CTN. H24, 31 JUL 14:50
    2014 UNTIL 31 OCT 23:59 2014. CREATED: 31 JUL 14:50 2014

SKCL A2219/14 SEQUENCED FLG LGT RWY 01 U/S. 04 AUG 14:50 2014
    UNTIL 04 NOV 23:59 2014 ESTIMATED. CREATED: 04 AUG 14:55
    2014

SKCL A2324/14 MOV AREA WO VERTICAL SIGNALLING, EXER CTN. H24,
    15 AUG 21:30 2014 UNTIL 30 NOV 23:59 2014. CREATED: 15 AUG
    22:18 2014

SKCL V0094/14 [DOD PROCEDURAL NOTAM] INSTRUMENT APPROACH PROCEDURE
    CHANGED DUE TO HOST CHANGE: ILS RWY 01 AMDT 1: MSA 120-200
    11700FT, 200-350 16100FT, 350-120 15300FT. FAF CROSSING ALTITUDE
    5700FT. MAP 7.1 DME/CLO. VOR RWY 19 ORIG; ANKIN 5A, 5B DEP;
    BUN 6A DEP; BUN 6C DEP - MSA 120-200 11700FT, 200-350 16100FT,
    350-120 15300FT. 23 JUL 22:35 2014 UNTIL 18 SEP 23:59 2014.
    CREATED: 23 JUL 22:36 2014

---------------------------------------------------------------------------